Location: Stull Observatory
(42.2506°N, 77.7903°W)
Time: 01:33:20
(UTC-05:00)

Daily predictions for brighter satellites

Satellite Brightness Start Highest point End
(mag) Time Altitude Azimuth Time Altitude Azimuth Time Altitude Azimuth
Cosmos 2237 Rocket 4.2 03:57:43 20° NNE 03:57:43 20° NNE 03:59:20 10° NNE
Cosmos 2333 Rocket 4.4 04:06:33 15° N 04:06:33 15° N 04:07:28 10° NNE
Atlas Centaur 2 3.9 04:16:10 33° S 04:16:25 33° S 04:23:41 10° SE
Lacrosse 5 rocket 2.8 04:23:56 40° E 04:23:56 40° E 04:27:32 10° ENE
SL-16 R/B 2.2 04:29:35 79° E 04:29:35 79° E 04:35:07 10° NNE
Cosmos 2123 Rocket 4.0 04:26:34 10° S 04:32:45 79° E 04:39:03 10° N
Cosmos 1725 Rocket 4.0 04:27:28 10° N 04:33:42 78° E 04:39:52 10° S
CZ-4B R/B 3.1 04:45:08 10° N 04:50:49 77° WNW 04:56:27 10° SSW
Meteor 1-26 Rocket 4.1 04:48:03 28° N 04:51:05 89° E 04:56:44 10° S
USA 229 DEB 3.7 04:49:11 41° NW 04:52:04 84° SW 04:59:25 10° SSE
USA 229 3.7 04:49:15 40° NW 04:52:10 85° SW 04:59:31 10° SSE
Cosmos 1503 Rocket 3.8 04:51:37 71° NW 04:52:12 85° WSW 04:57:21 10° SSE
CZ-2C R/B 3.7 04:49:02 10° SSE 04:53:32 79° ENE 04:54:19 59° N
Cosmos 2369 Rocket 3.9 04:49:18 10° N 04:54:05 28° NE 04:58:50 10° ESE
Cosmos 2297 3.7 04:54:23 60° WSW 04:54:23 60° WSW 04:59:57 10° S
Cosmos 2016 Rocket 4.3 04:56:33 44° SW 04:56:33 44° SW 05:01:08 10° SSW
COSMO-SKYMED 1 3.8 04:51:57 10° SE 04:56:01 41° ENE 05:00:06 10° N
Cosmos 2084 Rocket 3.5 04:57:55 64° ESE 04:57:55 64° ESE 05:01:19 10° SE
Cosmos 1408 4.2 04:56:20 10° SSE 04:59:47 36° E 05:03:15 10° NNE
IRS-1C Rocket 3.9 04:56:20 10° N 05:01:35 71° WNW 05:06:47 10° SSW
USA 116 4.4 04:56:32 10° SSE 05:01:49 87° ENE 05:07:08 10° NNW
SJ-6F 4.3 04:58:08 10° NNE 05:07:03 - SSW 05:02:05 80° NNW
Meteor 2-12 Rocket 4.3 04:56:27 11° NNW 05:02:22 69° W 05:08:22 10° S
Cosmos 968 Rocket 4.3 04:59:38 13° N 05:04:10 51° ENE 05:09:17 10° SE
IDEFIX/ARIANE 42P 4.0 05:02:23 10° NNE 05:07:14 39° E 05:12:03 10° SSE
PSLV R/B 4.1 05:11:52 42° SSE 05:11:52 42° SSE 05:14:40 10° E
Cosmos 1862 Rocket 4.2 05:12:48 39° SW 05:12:48 39° SW 05:15:57 10° SSW
PAYLOAD B 4.5 05:07:46 10° N 05:13:02 43° WNW 05:13:29 42° W
MTI 3.8 05:13:42 10° SSE 05:16:33 70° SSE 05:16:33 70° SSE
Meteor 1-28 Rocket 3.6 05:14:52 10° S 05:17:46 44° SW 05:17:46 44° SW
EO 1 Del DPAF 3.1 05:22:51 10° SSE 05:26:41 88° WSW 05:29:32 18° NNW
Landsat 4 3.9 05:25:27 10° S 05:28:54 45° WSW 05:28:54 45° WSW
Cosmos 1354 Rocket 4.4 05:28:31 34° WNW 05:29:45 39° WSW 05:34:34 10° S
Cosmos 1943 Rocket 3.6 05:27:29 10° N 05:32:41 35° ENE 05:37:51 10° ESE
Okean 1-7 3.3 05:28:30 10° N 05:32:54 70° E 05:37:14 10° SSE
USA 32 4.1 05:32:32 10° SSW 05:37:35 50° W 05:42:41 10° N
Hubble Space Telescope 3.3 05:36:44 10° SSW 05:38:16 12° S 05:39:48 10° SSE
Cosmos 2237 Rocket 3.9 05:39:35 15° NNW 05:39:35 15° NNW 05:41:52 10° N
Cosmos 1943 4.0 05:33:07 10° S 05:38:37 53° ESE 05:44:08 10° NNE
SKYMED 2 3.6 05:39:43 10° S 05:43:59 59° W 05:48:18 10° NNW
Cosmos 2233 Rocket 4.1 05:38:18 10° NNW 05:44:08 47° W 05:49:57 10° SSW
ATLAS 5 CENTAUR R/B 2.6 05:43:35 10° SSW 05:48:01 53° ESE 05:52:50 10° NE
Gbstr 26 Del rocket 4.5 05:46:28 18° NW 05:48:05 22° N 05:51:16 10° NE
Abrixas rocket 3.6 05:49:49 22° NNW 05:50:57 27° N 05:53:45 10° ENE
Cosmos 1825 2.2 05:47:29 10° SSW 05:51:10 51° W 05:54:52 10° N
DMSP B5D1-3 4.5 05:46:57 10° SSE 05:52:04 82° WSW 05:57:15 10° NNW
DELTA 2 R/B (1) 4.1 05:48:34 20° W 05:52:09 49° SSW 05:57:30 10° SE
BREEZE-M DEB (TANK) 3.4 05:50:45 23° WNW 05:52:47 53° N 05:56:47 10° E
Meteor 1-27 Rocket 4.1 05:49:37 10° N 05:55:29 72° E 06:01:12 10° SSE
Cosmos 2221 Rocket 3.5 05:54:26 10° NNW 05:58:52 67° W 06:03:19 10° S
Intercosmos 25 3.5 05:56:50 11° NNW 05:59:50 44° W 06:03:59 10° SSW
USA 267 4.4 05:54:34 10° E 06:00:14 32° NNE 06:05:53 10° NW
Meteor 2-3 Rocket 4.5 05:55:37 10° SW 06:00:36 30° WNW 06:05:35 10° N
Okean-O 3.0 05:56:37 10° N 06:00:47 41° WNW 06:04:57 10° SW
Lacrosse 5 rocket 2.3 05:59:41 18° W 06:02:29 35° NNW 06:06:46 10° NNE
Meteor 1-10 Rocket 4.4 05:57:06 10° NNW 06:02:57 61° W 06:08:46 10° S
SJ-12 4.1 06:00:36 10° NNE 06:04:45 76° ESE 06:08:50 10° S
Cosmos 1484 Rocket 4.2 06:04:33 10° NNE 06:08:26 44° E 06:12:15 10° S
Cosmos 1703 Rocket 4.3 06:06:59 10° NNW 06:10:48 30° W 06:14:36 10° SSW
Cosmos 1513 Rocket 4.4 06:05:45 10° N 06:11:49 77° W 06:17:51 10° S
Cosmos 1441 Rocket 3.1 06:08:50 10° NNW 06:12:34 62° W 06:16:15 10° S
Cosmos 1606 3.6 06:10:11 10° NNW 06:13:26 27° W 06:16:41 10° SSW
SL-16 R/B 3.6 06:11:34 14° W 06:14:14 18° NW 06:18:04 10° N
Cosmos 1869 Rocket 4.1 06:12:24 10° SW 06:16:26 36° WNW 06:20:32 10° N
COSMOS 2441 4.4 06:12:26 10° N 06:17:22 82° WNW 06:22:14 10° SSW
Cosmos 1603 4.1 06:13:20 10° SW 06:18:37 41° WNW 06:23:59 10° NNE
Cosmos 1777 Rocket 4.0 06:13:24 10° NNW 06:18:38 82° WSW 06:23:49 10° SSE
NOSS 3-1 (C) 4.4 06:14:31 10° NW 06:21:51 48° WSW 06:29:52 10° S
SMAP 3.8 06:18:51 10° NNE 06:23:29 59° ESE 06:28:03 10° S
Cosmos 1891 Rocket 4.5 06:17:54 10° NNW 06:23:52 63° W 06:29:52 10° S
Cosmos 1782 4.0 06:22:23 10° NW 06:25:26 22° W 06:28:29 10° SW
CZ-2C R/B 2.8 06:25:20 10° N 06:30:18 47° WNW 06:35:09 10° SW
COSMO-SKYMED 1 4.0 06:29:21 10° SW 06:32:20 18° W 06:35:21 10° NW
ATLAS 2AS CENTAUR R/B 4.0 06:25:21 10° NNW 06:32:56 42° NE 06:40:00 10° ESE
Cosmos 1408 4.3 06:32:58 10° WSW 06:35:04 14° WNW 06:37:09 10° NW
AQUARIUS 4.4 06:31:29 10° NNE 06:36:01 79° ESE 06:40:30 10° S
Cosmos 2369 Rocket 2.6 06:32:58 10° NW 06:38:17 45° WSW 06:43:34 10° S
Ariane Rocket 3.1 06:34:31 10° NNE 06:39:37 86° ESE 06:44:40 10° SSW
